VE6CPK-13 Weather Reports


time (UTC)temp
C
wind
direction
speed
KPH
gust
KPH
rain 1hr
cm
rain 24hr
cm
rain mn
cm
humidity
%
barometer
mb
20260507094122 10 15 0.0 4.8 0.00 0.00 0.00 53 1005.6
20260507093623 10 15 0.0 4.8 0.00 0.00 0.00 54 1005.7
20260507093123 10 15 0.0 4.8 0.00 0.00 0.00 54 1005.6
20260507092622 10 15 0.0 4.8 0.00 0.00 0.00 54 1005.6
20260507092122 10 15 0.0 4.8 0.00 0.00 0.00 54 1005.6
20260507091622 10 15 0.0 4.8 0.00 0.00 0.00 55 1005.4
20260507091122 10 15 0.0 4.8 0.00 0.00 0.00 56 1005.3
20260507090621 10 15 0.0 4.8 0.00 0.00 0.00 56 1005.2
20260507090123 10 15 0.0 4.8 0.00 0.00 0.00 55 1005.3
20260507085622 10 15 0.0 4.8 0.00 0.00 0.00 53 1005.3
20260507085123 10 15 0.0 4.8 0.00 0.00 0.00 52 1005.4
20260507084622 10 15 0.0 4.8 0.00 0.00 0.00 52 1005.3
20260507084122 10 15 0.0 4.8 0.00 0.00 0.00 52 1005.4
20260507083623 10 15 0.0 4.8 0.00 0.00 0.00 52 1005.4
20260507083122 10 15 0.0 4.8 0.00 0.00 0.00 52 1005.4
20260507082621 10 15 0.0 4.8 0.00 0.00 0.00 52 1005.4
20260507082123 10 15 0.0 4.8 0.00 0.00 0.00 52 1005.5
20260507081622 10 15 0.0 4.8 0.00 0.00 0.00 52 1005.6
20260507081121 10 15 0.0 4.8 0.00 0.00 0.00 52 1005.7
20260507080623 10 15 0.0 4.8 0.00 0.00 0.00 52 1005.7
20260507080123 10 15 0.0 4.8 0.00 0.00 0.00 52 1005.7
20260507075622 10 15 0.0 4.8 0.00 0.00 0.00 51 1005.8
20260507075122 10 15 0.0 4.8 0.00 0.00 0.00 50 1005.9
20260507074442 10 15 0.0 4.8 0.00 0.00 0.00 50 1006.0
20260507073941 11 15 0.0 4.8 0.00 0.00 0.00 49 1006.0
20260507073509 11 15 0.0 4.8 0.00 0.00 0.00 48 1006.1
20260507073011 11 15 0.0 4.8 0.00 0.00 0.00 49 1006.1
20260507072510 11 15 0.0 4.8 0.00 0.00 0.00 48 1006.1
20260507072009 11 15 0.0 4.8 0.00 0.00 0.00 48 1006.0
20260507071511 11 15 0.0 4.8 0.00 0.00 0.00 48 1006.0
20260507071010 11 15 0.0 4.8 0.00 0.00 0.00 48 1006.0
20260507070510 11 15 0.0 4.8 0.00 0.00 0.00 48 1006.0
20260507070013 11 15 0.0 4.8 0.00 0.00 0.00 48 1006.0
20260507065511 11 15 0.0 4.8 0.00 0.00 0.00 47 1006.0
20260507065011 11 15 0.0 4.8 0.00 0.00 0.00 47 1006.0
20260507064510 11 15 0.0 4.8 0.00 0.00 0.00 47 1006.0
20260507064010 11 15 0.0 4.8 0.00 0.00 0.00 48 1006.0
20260507063509 11 15 0.0 4.8 0.00 0.00 0.00 47 1006.0
20260507063009 11 15 0.0 4.8 0.00 0.00 0.00 47 1006.0
20260507062510 11 15 0.0 4.8 0.00 0.00 0.00 46 1006.0
20260507062009 11 15 0.0 4.8 0.00 0.00 0.00 46 1006.0
20260507061509 11 10 0.0 4.8 0.00 0.00 0.00 45 1006.2
20260507061010 11 32 0.0 4.8 0.00 0.00 0.00 45 1006.2
20260507060510 11 134 0.0 0.0 0.00 0.00 0.00 44 1005.9
20260507060009 11 134 0.0 0.0 0.00 0.00 0.00 44 1005.7
20260507055509 11 134 0.0 16.1 0.00 0.00 0.00 43 1005.5
20260507055011 11 134 0.0 16.1 0.00 0.00 0.00 43 1005.5
20260507054511 11 134 0.0 16.1 0.00 0.00 0.00 43 1005.3
20260507054011 11 134 0.0 16.1 0.00 0.00 0.00 43 1005.4
20260507053510 12 134 0.0 16.1 0.00 0.00 0.00 42 1005.3
20260507053009 12 134 0.0 16.1 0.00 0.00 0.00 42 1005.2
20260507052509 12 134 0.0 16.1 0.00 0.00 0.00 41 1005.3
20260507052009 12 134 0.0 16.1 0.00 0.00 0.00 42 1005.2
20260507051510 12 134 0.0 16.1 0.00 0.00 0.00 42 1005.2
20260507051010 12 134 0.0 16.1 0.00 0.00 0.00 41 1005.4
20260507050511 12 134 0.0 16.1 0.00 0.00 0.00 40 1005.2
20260507050010 12 134 0.0 16.1 0.00 0.00 0.00 41 1005.2
20260507045510 12 134 0.0 16.1 0.00 0.00 0.00 42 1005.2
20260507045009 12 134 0.0 16.1 0.00 0.00 0.00 41 1005.2
20260507044510 12 134 0.0 16.1 0.00 0.00 0.00 40 1005.0
20260507044009 13 134 0.0 16.1 0.00 0.00 0.00 40 1004.8
20260507043510 13 134 0.0 16.1 0.00 0.00 0.00 40 1004.7
20260507043010 13 134 0.0 16.1 0.00 0.00 0.00 40 1004.6
20260507042509 13 134 0.0 16.1 0.00 0.00 0.00 39 1004.5
20260507042010 13 134 0.0 16.1 0.00 0.00 0.00 39 1004.4
20260507041510 13 134 0.0 16.1 0.00 0.00 0.00 39 1004.3
20260507041009 13 135 0.0 16.1 0.00 0.00 0.00 38 1004.4
20260507040509 13 132 0.0 16.1 0.00 0.00 0.00 38 1004.3
20260507040010 14 123 0.0 16.1 0.00 0.00 0.00 39 1004.3
20260507035510 14 84 0.0 16.1 0.00 0.00 0.00 39 1004.2
20260507035010 14 82 0.0 16.1 0.00 0.00 0.00 39 1004.1
20260507034510 14 99 0.0 16.1 0.00 0.00 0.00 39 1004.0
20260507034009 15 105 0.0 16.1 0.00 0.00 0.00 39 1004.0
20260507033509 15 47 1.6 16.1 0.00 0.00 0.00 38 1004.0
20260507033009 15 163 0.0 16.1 0.00 0.00 0.00 38 1003.9
20260507032509 15 163 0.0 16.1 0.00 0.00 0.00 37 1003.8
20260507032009 15 29 3.2 16.1 0.00 0.00 0.00 36 1003.7
20260507031508 15 352 3.2 16.1 0.00 0.00 0.00 35 1003.7
20260507031010 15 336 0.0 16.1 0.00 0.00 0.00 34 1003.7
20260507030510 16 342 3.2 16.1 0.00 0.00 0.00 33 1003.6
20260507030010 16 214 1.6 16.1 0.00 0.00 0.00 33 1003.5
20260507025510 16 25 1.6 16.1 0.00 0.00 0.00 33 1003.4
20260507025010 16 0 9.7 16.1 0.00 0.00 0.00 32 1003.2
20260507024510 16 12 4.8 16.1 0.00 0.00 0.00 31 1003.1
20260507024009 17 10 1.6 16.1 0.00 0.00 0.00 32 1003.1
20260507023509 17 10 3.2 16.1 0.00 0.00 0.00 33 1002.9
20260507023010 17 6 1.6 16.1 0.00 0.00 0.00 33 1002.8
20260507022509 17 355 0.0 16.1 0.00 0.00 0.00 33 1002.7
20260507022009 17 356 1.6 16.1 0.00 0.00 0.00 32 1002.6
20260507021510 17 29 1.6 16.1 0.00 0.00 0.00 32 1002.6
20260507021009 18 351 1.6 16.1 0.00 0.00 0.00 31 1002.5
20260507020509 18 347 3.2 16.1 0.00 0.00 0.00 31 1002.5
20260507020009 18 17 4.8 16.1 0.00 0.00 0.00 31 1002.4
20260507015510 18 0 4.8 16.1 0.00 0.00 0.00 31 1002.5
20260507015010 18 34 3.2 16.1 0.00 0.00 0.00 30 1002.4
20260507014509 18 355 1.6 16.1 0.00 0.00 0.00 31 1002.4
20260507014008 18 41 1.6 16.1 0.00 0.00 0.00 31 1002.4
20260507013508 18 4 0.0 16.1 0.00 0.00 0.00 31 1002.4
20260507013010 18 45 0.0 16.1 0.00 0.00 0.00 31 1002.4
20260507012509 18 16 3.2 16.1 0.00 0.00 0.00 31 1002.4
20260507012019 18 5 3.2 16.1 0.00 0.00 0.00 31 1002.4
20260507011520 18 10 3.2 16.1 0.00 0.00 0.00 31 1002.3
20260507011019 18 3 4.8 16.1 0.00 0.00 0.00 31 1002.4
20260507010519 18 12 4.8 16.1 0.00 0.00 0.00 31 1002.3
20260507010020 18 33 3.2 16.1 0.00 0.00 0.00 31 1002.2
20260507005519 18 27 1.6 16.1 0.00 0.00 0.00 31 1002.2
20260507005021 18 13 0.0 16.1 0.00 0.00 0.00 31 1002.3
20260507004521 19 34 4.8 12.9 0.00 0.00 0.00 31 1002.5
20260507004021 19 7 4.8 12.9 0.00 0.00 0.00 30 1002.5
20260507003520 19 27 0.0 11.3 0.00 0.00 0.00 29 1002.3
20260507003021 19 31 0.0 11.3 0.00 0.00 0.00 30 1002.1
20260507002519 20 31 0.0 11.3 0.00 0.00 0.00 30 1002.0
20260507002021 20 30 0.0 11.3 0.00 0.00 0.00 31 1002.2
20260507001521 20 30 0.0 11.3 0.00 0.00 0.00 29 1002.0
20260507001020 20 30 0.0 11.3 0.00 0.00 0.00 30 1002.0
20260507000520 20 30 0.0 11.3 0.00 0.00 0.00 28 1001.9
20260507000020 20 28 0.0 11.3 0.00 0.00 0.00 29 1001.8
20260506235520 20 5 0.0 11.3 0.00 0.00 0.00 29 1001.7
20260506235020 20 71 0.0 11.3 0.00 0.00 0.00 29 1001.5
20260506234520 20 148 0.0 11.3 0.00 0.00 0.00 28 1001.6
20260506234021 20 84 0.0 11.3 0.00 0.00 0.00 28 1001.8
20260506233520 20 9 3.2 11.3 0.00 0.00 0.00 27 1001.8
20260506233020 20 15 3.2 11.3 0.00 0.00 0.00 26 1001.9
20260506232520 21 0 3.2 11.3 0.00 0.00 0.00 25 1002.1
20260506232020 21 346 0.0 11.3 0.00 0.00 0.00 25 1002.1
20260506231520 21 347 0.0 11.3 0.00 0.00 0.00 25 1002.0
20260506231020 21 347 1.6 11.3 0.00 0.00 0.00 25 1001.9
20260506230520 21 30 0.0 11.3 0.00 0.00 0.00 25 1002.0
20260506230020 21 2 3.2 11.3 0.00 0.00 0.00 25 1002.1
20260506225519 21 40 4.8 11.3 0.00 0.00 0.00 24 1002.1
20260506225020 21 18 1.6 11.3 0.00 0.00 0.00 24 1002.1
20260506224519 21 25 3.2 11.3 0.00 0.00 0.00 24 1002.3
20260506224020 21 13 1.6 11.3 0.00 0.00 0.00 24 1002.3
20260506223520 21 17 1.6 11.3 0.00 0.00 0.00 25 1002.4
20260506223020 21 22 1.6 11.3 0.00 0.00 0.00 25 1002.6
20260506222520 21 9 1.6 11.3 0.00 0.00 0.00 24 1002.6
20260506222020 21 66 0.0 11.3 0.00 0.00 0.00 25 1002.6
20260506221520 21 30 3.2 11.3 0.00 0.00 0.00 24 1002.7
20260506221020 21 353 1.6 11.3 0.00 0.00 0.00 24 1002.8
20260506220520 21 351 0.0 11.3 0.00 0.00 0.00 24 1002.8
20260506220020 21 346 1.6 11.3 0.00 0.00 0.00 24 1002.9
20260506215520 21 343 3.2 11.3 0.00 0.00 0.00 24 1002.9
20260506215019 21 20 0.0 11.3 0.00 0.00 0.00 24 1003.0
20260506214519 21 5 0.0 11.3 0.00 0.00 0.00 24 1003.1
20260506214019 21 285 0.0 11.3 0.00 0.00 0.00 24 1003.1
20260506213519 21 126 0.0 11.3 0.00 0.00 0.00 24 1003.1
20260506213019 21 26 0.0 11.3 0.00 0.00 0.00 24 1003.1
20260506212519 21 28 0.0 11.3 0.00 0.00 0.00 25 1003.2
20260506212019 21 146 0.0 11.3 0.00 0.00 0.00 25 1003.1
20260506211518 21 19 0.0 11.3 0.00 0.00 0.00 25 1003.2
20260506211020 21 9 1.6 11.3 0.00 0.00 0.00 25 1003.2
20260506210520 21 15 0.0 11.3 0.00 0.00 0.00 25 1003.3
20260506210020 21 13 0.0 11.3 0.00 0.00 0.00 25 1003.4
20260506205520 21 13 1.6 11.3 0.00 0.00 0.00 25 1003.4
20260506205020 21 254 0.0 11.3 0.00 0.00 0.00 25 1003.4
20260506204520 21 9 0.0 11.3 0.00 0.00 0.00 25 1003.4
20260506204019 21 28 0.0 11.3 0.00 0.00 0.00 25 1003.5
20260506203519 21 19 0.0 11.3 0.00 0.00 0.00 25 1003.5
20260506203019 21 7 1.6 11.3 0.00 0.00 0.00 25 1003.5
20260506202519 21 19 1.6 11.3 0.00 0.00 0.00 24 1003.5
20260506202019 21 19 3.2 11.3 0.00 0.00 0.00 24 1003.5
20260506201519 21 30 3.2 11.3 0.00 0.00 0.00 24 1003.5
20260506201019 21 5 1.6 11.3 0.00 0.00 0.00 23 1003.5
20260506200519 21 0 0.0 11.3 0.00 0.00 0.00 24 1003.6
20260506200019 22 0 0.0 11.3 0.00 0.00 0.00 24 1003.8
20260506195518 22 0 1.6 11.3 0.00 0.00 0.00 24 1003.8
20260506195018 21 19 1.6 11.3 0.00 0.00 0.00 24 1003.8
20260506194518 21 21 1.6 11.3 0.00 0.00 0.00 24 1003.9
20260506194018 22 30 1.6 11.3 0.00 0.00 0.00 25 1003.9
20260506193520 22 177 0.0 11.3 0.00 0.00 0.00 25 1004.0
20260506193020 22 177 1.6 11.3 0.00 0.00 0.00 26 1004.1
20260506192520 22 21 0.0 11.3 0.00 0.00 0.00 26 1004.2
20260506192020 21 50 1.6 11.3 0.00 0.00 0.00 24 1004.3
20260506191519 21 28 1.6 11.3 0.00 0.00 0.00 25 1004.4
20260506191019 21 333 0.0 11.3 0.00 0.00 0.00 26 1004.6
20260506190520 21 333 0.0 11.3 0.00 0.00 0.00 25 1004.7
20260506190019 21 38 0.0 11.3 0.00 0.00 0.00 26 1004.8
20260506185520 20 173 0.0 11.3 0.00 0.00 0.00 26 1004.9
20260506185020 20 177 0.0 11.3 0.00 0.00 0.00 27 1005.0
20260506184518 20 186 1.6 11.3 0.00 0.00 0.00 28 1005.1
20260506184020 20 182 3.2 11.3 0.00 0.00 0.00 28 1005.2
20260506183520 20 181 1.6 11.3 0.00 0.00 0.00 28 1005.3
20260506183019 19 180 1.6 11.3 0.00 0.00 0.00 30 1005.3
20260506182519 19 153 0.0 11.3 0.00 0.00 0.00 32 1005.4
20260506182020 18 180 1.6 11.3 0.00 0.00 0.00 29 1005.5
20260506181520 18 176 0.0 11.3 0.00 0.00 0.00 30 1005.6
20260506181018 18 173 1.6 11.3 0.00 0.00 0.00 30 1005.7
20260506180518 18 164 0.0 11.3 0.00 0.00 0.00 30 1005.8
20260506180019 17 130 0.0 11.3 0.00 0.00 0.00 31 1005.9
20260506175518 17 161 1.6 11.3 0.00 0.00 0.00 31 1006.0
20260506175019 17 189 0.0 11.3 0.00 0.00 0.00 31 1006.1
20260506174519 17 172 0.0 11.3 0.00 0.00 0.00 31 1006.3
20260506174022 17 186 0.0 11.3 0.00 0.00 0.00 31 1006.4
20260506173523 16 173 0.0 11.3 0.00 0.00 0.00 34 1006.5
20260506173023 16 171 0.0 11.3 0.00 0.00 0.00 33 1006.6
20260506172523 16 178 0.0 11.3 0.00 0.00 0.00 34 1006.7
20260506172022 15 176 0.0 11.3 0.00 0.00 0.00 36 1006.8
20260506171522 15 177 0.0 11.3 0.00 0.00 0.00 35 1006.9
20260506171024 15 176 1.6 9.7 0.00 0.00 0.00 35 1007.0
20260506170523 14 167 0.0 9.7 0.00 0.00 0.00 34 1007.1
20260506170023 14 167 1.6 9.7 0.00 0.00 0.00 36 1007.3
20260506165523 13 167 0.0 9.7 0.00 0.00 0.00 36 1007.3
20260506165023 13 167 0.0 9.7 0.00 0.00 0.00 37 1007.5
20260506164523 13 168 0.0 9.7 0.00 0.00 0.00 38 1007.6
20260506164023 13 168 0.0 9.7 0.00 0.00 0.00 38 1007.7
20260506163522 12 168 0.0 9.7 0.00 0.00 0.00 40 1007.7
20260506163022 12 166 0.0 9.7 0.00 0.00 0.00 40 1007.8
20260506162523 12 169 0.0 9.7 0.00 0.00 0.00 40 1007.9
20260506162024 11 171 0.0 9.7 0.00 0.00 0.00 41 1007.9
20260506161523 11 167 0.0 9.7 0.00 0.00 0.00 42 1008.0
20260506161023 11 167 0.0 9.7 0.00 0.00 0.00 42 1008.0
20260506160522 10 166 0.0 9.7 0.00 0.00 0.00 43 1008.2
20260506160022 10 166 0.0 9.7 0.00 0.00 0.00 45 1008.3
20260506155522 9 167 1.6 9.7 0.00 0.00 0.00 45 1008.4
20260506155023 9 167 0.0 9.7 0.00 0.00 0.00 45 1008.5
20260506154523 8 167 1.6 9.7 0.00 0.00 0.00 46 1008.6
20260506154023 8 165 0.0 9.7 0.00 0.00 0.00 45 1008.6
20260506153523 8 165 0.0 9.7 0.00 0.00 0.00 45 1008.7
20260506153022 8 165 0.0 9.7 0.00 0.00 0.00 46 1008.7
20260506152522 8 165 0.0 9.7 0.00 0.00 0.00 46 1008.7
20260506152023 7 165 0.0 9.7 0.00 0.00 0.00 48 1008.7
20260506151522 7 165 0.0 9.7 0.00 0.00 0.00 48 1008.8
20260506151023 7 165 0.0 9.7 0.00 0.00 0.00 49 1008.9
20260506150523 6 165 0.0 9.7 0.00 0.00 0.00 50 1009.0
20260506150022 6 165 0.0 9.7 0.00 0.00 0.00 51 1009.1
20260506145522 6 165 0.0 9.7 0.00 0.00 0.00 51 1009.1
20260506145022 5 165 0.0 9.7 0.00 0.00 0.00 53 1009.2
20260506144522 5 165 0.0 9.7 0.00 0.00 0.00 53 1009.2
20260506144022 5 165 0.0 9.7 0.00 0.00 0.00 54 1009.2
20260506143521 4 165 0.0 9.7 0.00 0.00 0.00 56 1009.3
20260506143023 4 165 0.0 9.7 0.00 0.00 0.00 56 1009.4
20260506142523 3 165 0.0 9.7 0.00 0.00 0.00 57 1009.5
20260506142023 3 165 0.0 9.7 0.00 0.00 0.00 57 1009.5
20260506141523 3 165 0.0 9.7 0.00 0.00 0.00 58 1009.5
20260506141022 3 165 0.0 9.7 0.00 0.00 0.00 59 1009.6
20260506140523 2 165 0.0 9.7 0.00 0.00 0.00 59 1009.7
20260506140022 2 165 0.0 9.7 0.00 0.00 0.00 60 1009.8
20260506135522 2 165 0.0 9.7 0.00 0.00 0.00 61 1009.8
20260506135023 2 165 0.0 9.7 0.00 0.00 0.00 62 1009.8
20260506134521 1 165 0.0 9.7 0.00 0.00 0.00 62 1009.7
20260506134022 1 165 0.0 9.7 0.00 0.00 0.00 62 1009.8
20260506133522 1 165 0.0 9.7 0.00 0.00 0.00 64 1009.9
20260506133023 1 165 0.0 9.7 0.00 0.00 0.00 64 1010.0
20260506132521 1 165 0.0 9.7 0.00 0.00 0.00 65 1010.0
20260506132022 0 165 0.0 9.7 0.00 0.00 0.00 66 1010.0
20260506131523 0 165 0.0 9.7 0.00 0.00 0.00 66 1010.0
20260506131021 0 165 0.0 9.7 0.00 0.00 0.00 67 1009.9
20260506130522 0 165 0.0 9.7 0.00 0.03 0.00 68 1010.1
20260506130022 0 165 0.0 9.7 0.00 0.03 0.00 68 1010.1
20260506125523 0 165 0.0 9.7 0.00 0.03 0.00 68 1010.1
20260506125021 0 165 0.0 9.7 0.00 0.03 0.00 69 1010.1
20260506124522 0 165 0.0 9.7 0.00 0.03 0.00 68 1010.1
20260506124022 0 165 0.0 9.7 0.00 0.03 0.00 67 1010.1
20260506123523 0 165 0.0 9.7 0.00 0.03 0.00 67 1010.1
20260506123022 -1 165 0.0 9.7 0.00 0.03 0.00 66 1010.1
20260506122522 0 165 0.0 9.7 0.00 0.03 0.00 64 1010.1
20260506122021 0 165 0.0 9.7 0.00 0.03 0.00 64 1010.1
20260506121522 0 165 0.0 9.7 0.00 0.03 0.00 64 1010.2
20260506121022 0 165 0.0 9.7 0.00 0.03 0.00 63 1010.3
20260506120523 0 165 0.0 9.7 0.00 0.03 0.00 63 1010.3
20260506120021 0 165 0.0 9.7 0.00 0.03 0.00 63 1010.3
20260506115522 0 165 0.0 9.7 0.00 0.03 0.00 62 1010.3
20260506115022 0 165 0.0 9.7 0.00 0.03 0.00 62 1010.4
20260506114522 0 165 0.0 9.7 0.00 0.03 0.00 62 1010.5
20260506114023 0 165 0.0 9.7 0.00 0.03 0.00 62 1010.6
20260506113521 0 165 0.0 9.7 0.00 0.03 0.00 62 1010.6
20260506113022 0 165 0.0 9.7 0.00 0.03 0.00 62 1010.7
20260506112522 0 165 0.0 9.7 0.00 0.03 0.00 62 1010.7
20260506112023 0 165 0.0 9.7 0.00 0.03 0.00 61 1010.7
20260506111521 0 165 0.0 9.7 0.00 0.03 0.00 61 1010.9
20260506111022 0 165 0.0 9.7 0.00 0.03 0.00 61 1010.9
20260506110522 0 165 0.0 9.7 0.00 0.03 0.00 60 1010.9
20260506110022 0 165 0.0 9.7 0.00 0.03 0.00 60 1011.0
20260506105522 0 165 0.0 9.7 0.00 0.03 0.00 59 1011.1
20260506105023 0 165 0.0 9.7 0.00 0.03 0.00 59 1011.2
20260506104521 0 165 0.0 9.7 0.00 0.03 0.00 59 1011.3
20260506104022 0 165 0.0 9.7 0.00 0.03 0.00 59 1011.3
20260506103523 0 165 0.0 9.7 0.00 0.03 0.00 59 1011.3
20260506103021 0 165 0.0 9.7 0.00 0.03 0.00 59 1011.3
20260506102521 0 165 0.0 9.7 0.00 0.03 0.00 59 1011.4
20260506102022 0 165 0.0 9.7 0.00 0.03 0.00 59 1011.4
20260506101522 0 165 0.0 9.7 0.00 0.03 0.00 59 1011.5
20260506101022 0 165 0.0 9.7 0.00 0.03 0.00 58 1011.7
20260506100521 0 165 0.0 9.7 0.00 0.03 0.00 57 1011.8
20260506100022 0 165 0.0 9.7 0.00 0.03 0.00 57 1011.9
20260506095522 1 165 0.0 9.7 0.00 0.03 0.00 57 1011.9
20260506095021 1 165 0.0 9.7 0.00 0.03 0.00 56 1012.0